| time (UTC) | temp C | wind direction | speed KPH | gust KPH | rain 1hr cm | rain 24hr cm | rain mn cm | humidity % | barometer mb |
| 20260502163038 | 10 | 314 | 0.0 | 1.6 | 0.00 | 0.18 | 0.18 | 82 | 1011.4 |
| 20260502161537 | 10 | 303 | 0.0 | 0.0 | 0.00 | 0.18 | 0.18 | 82 | 1011.7 |
| 20260502151530 | 10 | 216 | 0.0 | 3.2 | 0.00 | 0.18 | 0.18 | 86 | 1012.1 |
| 20260502123050 | 8 | 196 | 0.0 | 0.0 | 0.03 | 0.03 | 0.03 | 85 | 1013.0 |
| 20260502121533 | 8 | 196 | 3.2 | 9.7 | 0.00 | 0.00 | 0.00 | 84 | 1013.0 |
| 20260502114545 | 8 | 180 | 0.0 | 4.8 | 0.00 | 0.00 | 0.00 | 84 | 1012.7 |
| 20260502113039 | 8 | 128 | 0.0 | 3.2 | 0.00 | 0.00 | 0.00 | 84 | 1012.3 |
| 20260502111540 | 8 | 106 | 0.0 | 0.0 | 0.00 | 0.00 | 0.00 | 84 | 1011.8 |
| 20260502110036 | 7 | 106 | 0.0 | 1.6 | 0.00 | 0.00 | 0.00 | 84 | 1012.1 |
| 20260502104535 | 7 | 105 | 0.0 | 0.0 | 0.00 | 0.00 | 0.00 | 84 | 1012.2 |
| 20260502103038 | 7 | 105 | 0.0 | 0.0 | 0.00 | 0.00 | 0.00 | 83 | 1011.9 |
| 20260502101531 | 7 | 105 | 0.0 | 0.0 | 0.00 | 0.00 | 0.00 | 83 | 1011.9 |
| 20260502091526 | 7 | 105 | 0.0 | 0.0 | 0.00 | 0.00 | 0.00 | 82 | 1011.5 |
| 20260502071515 | 8 | 105 | 0.0 | 0.0 | 0.00 | 0.00 | 0.00 | 77 | 1011.3 |
| 20260502070019 | 8 | 105 | 0.0 | 0.0 | 0.00 | 0.00 | 0.00 | 77 | 1011.6 |
| 20260502064508 | 8 | 105 | 0.0 | 0.0 | 0.00 | 0.00 | 0.00 | 77 | 1011.6 |
| 20260502063012 | 8 | 105 | 0.0 | 0.0 | 0.00 | 0.00 | 0.00 | 78 | 1011.8 |
| 20260502061506 | 8 | 105 | 0.0 | 1.6 | 0.00 | 0.00 | 0.00 | 77 | 1012.1 |
| 20260502060002 | 8 | 105 | 0.0 | 0.0 | 0.00 | 0.00 | 0.00 | 75 | 1011.8 |
| 20260502054501 | 8 | 105 | 0.0 | 0.0 | 0.00 | 0.00 | 0.00 | 73 | 1011.9 |
| 20260502053001 | 8 | 105 | 0.0 | 0.0 | 0.00 | 0.00 | 0.00 | 73 | 1011.9 |
| 20260502051559 | 8 | 105 | 0.0 | 0.0 | 0.00 | 0.00 | 0.00 | 72 | 1012.0 |
| 20260502050031 | 8 | 105 | 0.0 | 0.0 | 0.00 | 0.00 | 0.00 | 71 | 1012.0 |
| 20260502044529 | 8 | 105 | 0.0 | 0.0 | 0.00 | 0.00 | 0.00 | 70 | 1012.0 |
| 20260502043025 | 8 | 105 | 0.0 | 0.0 | 0.00 | 0.00 | 0.00 | 69 | 1012.0 |
| 20260502041525 | 8 | 105 | 0.0 | 0.0 | 0.00 | 0.00 | 0.00 | 67 | 1012.0 |
| 20260502040023 | 9 | 105 | 0.0 | 0.0 | 0.00 | 0.00 | 0.00 | 65 | 1012.1 |
| 20260502034524 | 9 | 105 | 0.0 | 0.0 | 0.00 | 0.00 | 0.00 | 64 | 1012.1 |
| 20260502033020 | 10 | 105 | 0.0 | 0.0 | 0.00 | 0.00 | 0.00 | 63 | 1012.1 |
| 20260502031522 | 10 | 105 | 0.0 | 0.0 | 0.00 | 0.00 | 0.00 | 63 | 1012.1 |
| 20260502030019 | 10 | 105 | 0.0 | 0.0 | 0.00 | 0.00 | 0.00 | 61 | 1012.1 |
| 20260502024518 | 10 | 105 | 0.0 | 0.0 | 0.00 | 0.00 | 0.00 | 60 | 1012.0 |
| 20260502023014 | 10 | 105 | 0.0 | 0.0 | 0.00 | 0.00 | 0.00 | 61 | 1012.1 |
| 20260502021516 | 9 | 105 | 0.0 | 0.0 | 0.00 | 0.00 | 0.00 | 62 | 1012.0 |
| 20260502020012 | 9 | 105 | 0.0 | 0.0 | 0.00 | 0.00 | 0.00 | 61 | 1012.0 |
| 20260502014524 | 8 | 99 | 0.0 | 1.6 | 0.00 | 0.00 | 0.00 | 65 | 1011.9 |
| 20260502013044 | 8 | 280 | 0.0 | 0.0 | 0.00 | 0.00 | 0.00 | 63 | 1011.4 |
| 20260502011635 | 9 | 280 | 0.0 | 0.0 | 0.00 | 0.00 | 0.00 | 61 | 1011.4 |
| 20260502010027 | 10 | 280 | 0.0 | 0.0 | 0.00 | 0.00 | 0.00 | 56 | 1011.3 |
| 20260502004539 | 10 | 280 | 0.0 | 0.0 | 0.00 | 0.00 | 0.00 | 53 | 1011.0 |
| 20260502003019 | 11 | 280 | 0.0 | 0.0 | 0.00 | 0.00 | 0.00 | 51 | 1011.0 |
| 20260502001515 | 12 | 280 | 0.0 | 0.0 | 0.00 | 0.00 | 0.00 | 48 | 1010.7 |
| 20260502000008 | 14 | 280 | 0.0 | 0.0 | 0.00 | 0.00 | 0.00 | 44 | 1010.4 |
| 20260501234506 | 15 | 280 | 0.0 | 4.8 | 0.00 | 0.00 | 0.00 | 40 | 1010.4 |
| 20260501233003 | 15 | 280 | 0.0 | 1.6 | 0.00 | 0.00 | 0.00 | 42 | 1010.0 |
| 20260501231501 | 15 | 280 | 4.8 | 17.7 | 0.00 | 0.00 | 0.00 | 40 | 1009.8 |
| 20260501230058 | 15 | 267 | 4.8 | 14.5 | 0.00 | 0.00 | 0.00 | 41 | 1009.6 |
| 20260501224558 | 15 | 285 | 0.0 | 19.3 | 0.00 | 0.00 | 0.00 | 40 | 1009.6 |
| 20260501223105 | 15 | 266 | 1.6 | 17.7 | 0.00 | 0.00 | 0.00 | 38 | 1009.6 |
| 20260501221555 | 15 | 287 | 6.4 | 17.7 | 0.00 | 0.00 | 0.00 | 43 | 1009.6 |
| 20260501220055 | 15 | 296 | 12.9 | 20.9 | 0.00 | 0.00 | 0.00 | 37 | 1009.6 |
| 20260501214549 | 15 | 284 | 8.0 | 24.1 | 0.00 | 0.00 | 0.00 | 40 | 1009.5 |
| 20260501213106 | 15 | 250 | 12.9 | 29.0 | 0.00 | 0.00 | 0.00 | 40 | 1009.6 |
| 20260501211546 | 15 | 270 | 8.0 | 19.3 | 0.00 | 0.00 | 0.00 | 36 | 1009.2 |
| 20260501210043 | 15 | 268 | 14.5 | 20.9 | 0.00 | 0.00 | 0.00 | 41 | 1009.3 |
| 20260501204547 | 15 | 289 | 4.8 | 20.9 | 0.00 | 0.00 | 0.00 | 41 | 1009.2 |
| 20260501203040 | 15 | 258 | 6.4 | 16.1 | 0.00 | 0.00 | 0.00 | 37 | 1009.2 |
| 20260501201540 | 15 | 261 | 11.3 | 22.5 | 0.00 | 0.00 | 0.00 | 37 | 1009.1 |
| 20260501200038 | 15 | 272 | 8.0 | 19.3 | 0.00 | 0.00 | 0.00 | 42 | 1009.1 |
| 20260501194512 | 15 | 259 | 4.8 | 20.9 | 0.00 | 0.00 | 0.00 | 41 | 1009.2 |
| 20260501193005 | 14 | 279 | 8.0 | 22.5 | 0.00 | 0.00 | 0.00 | 44 | 1009.4 |
| 20260501191553 | 13 | 339 | 11.3 | 24.1 | 0.00 | 0.00 | 0.00 | 44 | 1009.6 |
| 20260501184531 | 13 | 265 | 9.7 | 29.0 | 0.00 | 0.00 | 0.00 | 43 | 1009.8 |
| 20260501183027 | 13 | 286 | 9.7 | 24.1 | 0.00 | 0.00 | 0.00 | 49 | 1009.9 |
| 20260501181523 | 13 | 295 | 8.0 | 24.1 | 0.00 | 0.00 | 0.00 | 48 | 1009.9 |
| 20260501180032 | 13 | 289 | 12.9 | 22.5 | 0.00 | 0.00 | 0.00 | 48 | 1010.1 |
| 20260501174522 | 13 | 326 | 11.3 | 19.3 | 0.00 | 0.00 | 0.00 | 51 | 1010.1 |
| 20260501173017 | 12 | 268 | 8.0 | 17.7 | 0.00 | 0.00 | 0.00 | 50 | 1010.2 |